Notices

What's New in latest Release from April 7th, 2021:

- Updated Glossary, including Speed of Maximum Gust, and Total Hourly Precipitation

- Updated national and regional climate services offices contacts and prices information

- Addition of station inventory lists for 1981-2010, 1971-2000, and 1961-1990 Normals.

If you haven't already, please take our survey and provide feedback about our website: https://eccc.sondage-survey.ca/f/LanguageSelection.aspx?s=442ca660-fcf1-47c0-95a9-59707d6fd709

Hourly Data Report for January 10, 2021

SHEARWATER RCS
NOVA SCOTIA
Current Station Operator: ECCC - MSC

44°37'47.000" N
63°30'48.000" W
24.00 m
8205092
71264
AAW

Download Data

Hourly Data (January 2021)
Hourly Data Report for January 10, 2021
TIME
LST
Temp Definition
°C
Dew Point Definition
°C
Rel Hum Definition
%
Precip. Amount Definition
mm

Wind Dir Definition
10's deg

Wind Spd Definition
km/h
Visibility Definition
km
Stn Press Definition
kPa
Hmdx Definition


Wind Chill Definition


Weather Definition


00:00 -0.5 -3.6 79 0.0 36 20   100.17   -6 LegendNANA
01:00 -0.8 -3.6 81 0.0 35 25   100.13   -7 LegendNANA
02:00 -1.0 -3.4 83 0.0 35 20   100.16   -7 LegendNANA
03:00 -0.7 -3.1 84 0.0 35 22   100.24   -6 LegendNANA
04:00 -0.5 -3.1 83 0.0 35 15   100.22   -5 LegendNANA
05:00 -0.4 -3.6 79 0.0 35 22   100.27   -6 LegendNANA
06:00 -0.5 -3.3 81 0.0 35 18   100.29   -6 LegendNANA
07:00 -0.3 -3.6 79 0.0 34 22   100.34   -6 LegendNANA
08:00 -0.4 -3.5 79 0.0 35 22   100.44   -6 LegendNANA
09:00 -0.5 -4.5 74 0.0 35 24   100.58   -6 LegendNANA
10:00 -0.7 -4.7 74 0.0 34 22   100.69   -6 LegendNANA
11:00 -0.7 -4.7 75 0.0 33 24   100.73   -7 LegendNANA
12:00 -0.6 -4.4 75 0.0 34 26   100.73   -7 LegendNANA
13:00 -0.2 -4.2 74 0.0 34 19   100.75   -5 LegendNANA
14:00 -0.4 -4.8 72 0.0 33 23   100.82   -6 LegendNANA
15:00 -0.5 -5.2 70 0.0 34 30   100.90   -7 LegendNANA
16:00 -1.0 -5.5 71 0.0 34 27   101.03   -7 LegendNANA
17:00 -1.5 -5.4 74 0.0 34 20   101.13   -7 LegendNANA
18:00 -1.6 -5.6 75 0.0 34 19   101.24   -7 LegendNANA
19:00 -1.9 -5.9 74 0.0 33 18   101.35   -7 LegendNANA
20:00 -2.0 -6.1 73 0.0 34 15   101.43   -7 LegendNANA
21:00 -2.2 -6.5 72 0.0 35 18   101.49   -8 LegendNANA
22:00 -3.1 -7.2 73 0.0 34 11   101.57   -7 LegendNANA
23:00 -3.9 -6.9 79 0.0 32 7   101.60   -7 LegendNANA

Notes on Data Quality.

Legend

  • E = Estimated
  • M = Missing
  • NA = Not Available*
  • [empty] = Indicates an unobserved value
Date modified: